Orbital Elements at Epoch 2459200.5 (2020-Dec-17.0) TDB
Reference: JPL 28 (heliocentric ecliptic J2000)
Element | Value | Uncertainty (1-sigma) | Units |
e | .1709423168886914 | 2.6479e-08 | |
a | 2.574276565612751 | 8.237e-09 | au |
q | 2.134223765174644 | 6.8031e-08 | au |
i | 3.052241297527152 | 3.705e-06 | deg |
node | 175.720236041108 | 6.8888e-05 | deg |
peri | 226.6390433527401 | 7.0212e-05 | deg |
M | 44.8897392535395 | 1.4235e-05 | deg |
tp | 2459012.383966167180 (2020-Jun-11.88396617) | 5.9274e-05 | TDB |
period | 1508.62476160352 4.13 | 7.2408e-06 1.982e-08 | d yr |
n | .2386279273431489 | 1.1453e-09 | deg/d |
Q | 3.014329366050858 | 9.645e-09 | au |
|
| | Orbit Determination Parameters
Additional Information
|